Skip Page Navigation
NASA JPL Caltech
NASA Logo - Jet Propulsion Laboratory + View the NASA Portal
+ Near-Earth Object (NEO) Program
Search JPL
JPL Home Earth Solar System Stars & Galaxies Technology
JPL Solar System Dynamics
BODIES ORBITS EPHEMERIDES TOOLS PHYSICAL DATA DISCOVERY FAQ SITE MAP
JPL Small-Body Database Browser
Search: [ help ]  
134329 Cycnos (2377 T-3)
Classification: Jupiter Trojan          SPK-ID: 2134329
Ephemeris | Orbit Diagram | Orbital Elements | Physical Parameters | Discovery Circumstances ]

[ show orbit diagram ]
Orbital Elements at Epoch 2456800.5 (2014-May-23.0) TDB
Reference: JPL 5 (heliocentric ecliptic J2000)
 Element Value Uncertainty (1-sigma)   Units 
e .07997127423909527 1.3019e-07  
a 5.171787153911918 2.5536e-07 AU
q 4.758192745120199 6.675e-07 AU
i 17.38925870692664 2.4767e-05 deg
node 17.59567159371941 3.2603e-05 deg
peri 279.8087001122014 0.00015539 deg
M 115.8273264603023 0.00015172 deg
tp 2455418.309439262051
(2010-Aug-09.80943926)
0.0018329 JED
period 4295.951715989931
11.76
0.00031818
8.711e-07
d
yr
n .08379982453248871 6.2065e-09 deg/d
Q 5.585381562703637 2.7578e-07 AU
  Orbit Determination Parameters
   # obs. used (total)      266  
   data-arc span      13209 days (36.16 yr)  
   first obs. used      1977-10-07  
   last obs. used      2013-12-06  
   planetary ephem.      DE431  
   SB-pert. ephem.      SB431-BIG16  
   condition code      0  
   fit RMS      .62039  
   data source      ORB  
   producer      Otto Matic  
   solution date      2014-Jun-11 05:06:08  

Additional Information
 Earth MOID = 3.79804 AU 
 T_jup = 2.903 
[ show covariance matrix ]

Ephemeris | Orbit Diagram | Orbital Elements | Physical Parameters | Discovery Circumstances ]

Physical Parameter Table
Parameter Symbol Value Units Sigma Reference Notes
absolute magnitude H 12.4 mag n/a MPO251220  

134329 Cycnos           Discovered 1977 Oct. 16 by C. J. van Houten and I. van Houten-Groeneveld on Palomar Schmidt plates taken by T. Gehrels.
Cycnos, an ally of Priam, was a son of Poseidon by a nymph. His body was firm as iron; he was invulnerable. Achilles tried three times to kill him with his spear, but without success. He then strangled him after Cycnos stumbled over a stone.
NOTE: some special characters may not display properly (any characters within {} are an attempt to place the proper accent above a character)
Reference: 20070730/MPCPages.arcLast Updated: 2007-08-07

Alternate Designations
 2377 T-3 = 2001 QO179 
Ephemeris | Orbit Diagram | Orbital Elements | Physical Parameters | Discovery Circumstances ]
ABOUT SSD CREDITS/AWARDS PRIVACY/COPYRIGHT GLOSSARY LINKS
FirstGov 2014-Jul-31 23:41 UT
(server date/time)  
NASA Home Page
Site Manager:   Donald K. Yeomans
Webmaster  Alan B. Chamberlin